User: anonymous   Login
Location: Unspecified
(0.0000°N, 0.0000°E)
Time: 01:59:33
(UTC+00:00)
Language:

SSETI-EXPRESS - Orbit

View from above orbital plane
View from above orbital plane
View from above satellite
View from above satellite

Ground track
Ground track

The orbit data is extracted from the following two-line orbital elements,

1 28894U 05043E   20328.34553827 +.00000095 +00000-0 +28349-4 0  9999
2 28894 098.0547 094.5295 0017414 165.9454 194.2235 14.61659019803202
Epoch (UTC): 23 November 2020 08:17:34
Eccentricity: 0.0017414
inclination: 98.0547°
perigee height: 675 km
apogee height: 700 km
right ascension of ascending node: 94.5295°
argument of perigee: 165.9454°
revolutions per day: 14.61659019
mean anomaly at epoch: 194.2235°
orbit number at epoch: 80320

The dashed part of the orbit path shows where the satellite is in the earth's shadow,  

DLR